Weather History for St. James, MN

Change the Weather History Date:

Wednesday, December 18, 2013

  Actual Average Record
Temperature  
Mean Temperature 26 °F -  
Max Temperature 37 °F 28 °F 51 °F (1976)
Min Temperature 15 °F 10 °F -21 °F (1983)
Degree Days  
Heating Degree Days 39    
Moisture  
Dew Point 22 °F    
Average Humidity 77    
Maximum Humidity 87    
Minimum Humidity 64    
Precipitation  
Precipitation 0.00 in - - ()
Sea Level Pressure  
Sea Level Pressure 29.77 in    
Wind  
Wind Speed 9 mph (SSW)    
Max Wind Speed 17 mph    
Max Gust Speed 23 mph    
Visibility 10 miles    
Events      
Averages and records for this station are not official NWS values.
T = Trace of Precipitation, MM = Missing Value Source: NWS Daily Summary

Daily Weather History Graph

Daily Weather History Graph

Search for Another Location

Airport:

Trip Planner

Search our weather history database for the weather conditions in past years. The results will help you decide how hot, cold, wet, or windy it might be!

Date:

Astronomy

Dec. 18, 2013 Rise Set
Actual Time 7:48 AM CST 4:41 PM CST
Civil Twilight 7:15 AM CST 5:15 PM CST
Nautical Twilight 6:38 AM CST 5:51 PM CST
Astronomical Twilight 6:03 AM CST 6:26 PM CST
Moon 6:17 PM CST (12/18) 8:25 AM CST (12/18)
Length of Visible Light 9h 59m
Length of Day
8h 53m
Full, 98% of the Moon is Illuminated
Dec 18
Full
Dec 25
Last Quarter
Jan 1
New
Jan 7
First Quarter
Jan 15
Full

Hourly Weather History & Observations

Time (CST) Temp. Windchill Dew Point Humidity Pressure Visibility Wind Dir Wind Speed Gust Speed Precip Events Conditions
12:14 AM 15.8 °F 8.6 °F 12.2 °F 86% 30.05 in 10.0 mi South 4.6 mph - N/A   Mostly Cloudy
12:35 AM 17.6 °F 9.3 °F 12.2 °F 79% 30.04 in 10.0 mi SSE 5.8 mph - N/A   Mostly Cloudy
12:55 AM 17.6 °F 8.2 °F 12.2 °F 79% 30.03 in 10.0 mi SSE 6.9 mph - N/A   Scattered Clouds
1:15 AM 17.6 °F 8.2 °F 12.2 °F 79% 30.02 in 10.0 mi South 6.9 mph - N/A   Clear
1:35 AM 17.6 °F 8.2 °F 12.2 °F 79% 30.00 in 10.0 mi SSE 6.9 mph - N/A   Clear
1:55 AM 17.6 °F 8.2 °F 12.2 °F 79% 29.99 in 10.0 mi SSE 6.9 mph - N/A   Clear
2:15 AM 15.8 °F 7.2 °F 12.2 °F 86% 29.98 in 10.0 mi SE 5.8 mph - N/A   Clear
2:35 AM 17.6 °F 7.3 °F 12.2 °F 79% 29.97 in 10.0 mi SE 8.1 mph - N/A   Clear
2:55 AM 17.6 °F 6.4 °F 12.2 °F 79% 29.95 in 10.0 mi SE 9.2 mph - N/A   Clear
3:15 AM 17.6 °F 6.4 °F 12.2 °F 79% 29.94 in 10.0 mi SE 9.2 mph - N/A   Clear
3:35 AM 17.6 °F 5.7 °F 12.2 °F 79% 29.92 in 10.0 mi SE 10.4 mph - N/A   Clear
3:55 AM 17.6 °F 5.7 °F 12.2 °F 79% 29.91 in 10.0 mi SE 10.4 mph - N/A   Clear
4:15 AM 17.6 °F 3.7 °F 12.2 °F 79% 29.88 in 10.0 mi ESE 13.8 mph - N/A   Clear
4:35 AM 19.4 °F 6.0 °F 12.2 °F 74% 29.87 in 10.0 mi SE 13.8 mph - N/A   Clear
4:55 AM 19.4 °F 5.0 °F 12.2 °F 74% 29.84 in 10.0 mi SE 16.1 mph - N/A   Clear
5:14 AM 21.2 °F 6.8 °F 12.2 °F 68% 29.82 in 10.0 mi SE 17.3 mph - N/A   Clear
5:35 AM 21.2 °F 7.3 °F 12.2 °F 68% 29.81 in 10.0 mi SE 16.1 mph - N/A   Clear
5:55 AM 21.2 °F 7.3 °F 12.2 °F 68% 29.80 in 10.0 mi SE 16.1 mph 20.7 mph N/A   Clear
6:15 AM 21.2 °F 6.8 °F 14.0 °F 74% 29.78 in 10.0 mi SE 17.3 mph 23.0 mph N/A   Clear
6:35 AM 21.2 °F 7.8 °F 14.0 °F 74% 29.77 in 10.0 mi SE 15.0 mph - N/A   Clear
6:55 AM 24.8 °F 11.5 °F 15.8 °F 69% 29.76 in 10.0 mi SSE 17.3 mph - N/A   Clear
7:14 AM 24.8 °F 11.9 °F 15.8 °F 69% 29.74 in 10.0 mi SSE 16.1 mph 21.9 mph N/A   Clear
7:35 AM 24.8 °F 11.5 °F 17.6 °F 74% 29.73 in 10.0 mi SSE 17.3 mph - N/A   Clear
7:55 AM 24.8 °F 11.5 °F 17.6 °F 74% 29.72 in 10.0 mi SSE 17.3 mph - N/A   Clear
8:15 AM 24.8 °F 12.4 °F 17.6 °F 74% 29.71 in 10.0 mi South 15.0 mph - N/A   Clear
8:35 AM 24.8 °F 12.9 °F 17.6 °F 74% 29.71 in 10.0 mi South 13.8 mph - N/A   Clear
8:55 AM 24.8 °F 14.0 °F 19.4 °F 80% 29.71 in 10.0 mi South 11.5 mph - N/A   Clear
9:14 AM 26.6 °F 14.7 °F 19.4 °F 74% 29.69 in 10.0 mi SSE 15.0 mph - N/A   Clear
9:35 AM 26.6 °F 16.2 °F 19.4 °F 74% 29.69 in 10.0 mi SSE 11.5 mph - N/A   Clear
9:55 AM 28.4 °F 19.7 °F 21.2 °F 74% 29.71 in 10.0 mi South 9.2 mph - N/A   Clear
10:15 AM 28.4 °F 19.7 °F 23.0 °F 80% 29.70 in 10.0 mi South 9.2 mph - N/A   Clear
10:34 AM 30.2 °F 22.6 °F 24.8 °F 80% 29.70 in 10.0 mi South 8.1 mph - N/A   Clear
10:55 AM 33.8 °F 27.7 °F 26.6 °F 75% 29.69 in 10.0 mi South 6.9 mph - N/A   Clear
11:15 AM 33.8 °F 27.7 °F 26.6 °F 75% 29.68 in 10.0 mi South 6.9 mph - N/A   Clear
11:34 AM 35.6 °F 30.7 °F 26.6 °F 70% 29.69 in 10.0 mi SW 5.8 mph - N/A   Clear
11:55 AM 37.4 °F 32.1 °F 28.4 °F 70% 29.68 in 10.0 mi SW 6.9 mph - N/A   Clear
12:15 PM 37.4 °F 32.1 °F 28.4 °F 70% 29.68 in 10.0 mi WSW 6.9 mph - N/A   Clear
12:35 PM 37.4 °F 32.8 °F 28.4 °F 70% 29.68 in 10.0 mi SW 5.8 mph - N/A   Clear
12:55 PM 37.4 °F - 28.4 °F 70% 29.68 in 10.0 mi Calm Calm - N/A   Clear
1:15 PM 32.0 °F 26.4 °F 21.2 °F 64% 29.68 in 10.0 mi West 5.8 mph - N/A   Clear
1:35 PM 37.4 °F 33.8 °F 28.4 °F 70% 29.67 in 10.0 mi WSW 4.6 mph - N/A   Clear
1:52 PM 35.6 °F 28.6 °F 28.4 °F 75% 29.67 in 10.0 mi SW 9.2 mph - N/A   Clear
2:15 PM 37.4 °F 32.1 °F 30.2 °F 75% 29.67 in 10.0 mi SW 6.9 mph - N/A   Clear
2:35 PM 37.4 °F 32.1 °F 28.4 °F 70% 29.67 in 10.0 mi SSW 6.9 mph - N/A   Clear
2:55 PM 37.4 °F 34.9 °F 30.2 °F 75% 29.67 in 10.0 mi SSW 3.5 mph - N/A   Clear
3:15 PM 37.4 °F 32.8 °F 30.2 °F 75% 29.67 in 10.0 mi SSW 5.8 mph - N/A   Clear
3:34 PM 37.4 °F 32.1 °F 30.2 °F 75% 29.68 in 10.0 mi SSW 6.9 mph - N/A   Clear
3:55 PM 37.4 °F 31.4 °F 30.2 °F 75% 29.68 in 10.0 mi SW 8.1 mph - N/A   Clear
4:15 PM 37.4 °F 32.8 °F 30.2 °F 75% 29.69 in 10.0 mi SSW 5.8 mph - N/A   Clear
4:34 PM 35.6 °F 29.9 °F 30.2 °F 81% 29.69 in 10.0 mi SSW 6.9 mph - N/A   Clear
4:55 PM 35.6 °F 29.2 °F 30.2 °F 81% 29.69 in 10.0 mi SSW 8.1 mph - N/A   Clear
5:15 PM 33.8 °F 28.6 °F 30.2 °F 87% 29.70 in 10.0 mi SW 5.8 mph - N/A   Clear
5:35 PM 35.6 °F 30.7 °F 28.4 °F 75% 29.70 in 10.0 mi SW 5.8 mph - N/A   Clear
5:55 PM 33.8 °F 29.6 °F 28.4 °F 81% 29.69 in 10.0 mi SW 4.6 mph - N/A   Clear
6:15 PM 35.6 °F 29.2 °F 28.4 °F 75% 29.69 in 10.0 mi SSW 8.1 mph - N/A   Clear
6:35 PM 35.6 °F 29.2 °F 28.4 °F 75% 29.70 in 10.0 mi SW 8.1 mph - N/A   Clear
6:55 PM 33.8 °F 28.6 °F 28.4 °F 81% 29.70 in 10.0 mi SW 5.8 mph - N/A   Clear
7:15 PM 30.2 °F 24.3 °F 26.6 °F 86% 29.72 in 10.0 mi SW 5.8 mph - N/A   Clear
7:35 PM 30.2 °F 23.4 °F 26.6 °F 86% 29.73 in 10.0 mi WSW 6.9 mph - N/A   Clear
7:55 PM 32.0 °F 24.8 °F 26.6 °F 80% 29.72 in 10.0 mi SW 8.1 mph - N/A   Clear
8:15 PM 32.0 °F 24.8 °F 26.6 °F 80% 29.72 in 10.0 mi SW 8.1 mph - N/A   Clear
8:35 PM 30.2 °F 22.6 °F 26.6 °F 86% 29.73 in 10.0 mi SW 8.1 mph - N/A   Clear
8:54 PM 30.2 °F 22.6 °F 26.6 °F 86% 29.73 in 10.0 mi SSW 8.1 mph - N/A   Clear
9:15 PM 30.2 °F 22.6 °F 24.8 °F 80% 29.74 in 10.0 mi SW 8.1 mph - N/A   Unknown
9:35 PM 28.4 °F 21.2 °F 24.8 °F 86% 29.75 in 10.0 mi SW 6.9 mph - N/A   Clear
9:55 PM 28.4 °F 22.2 °F 24.8 °F 86% 29.76 in 10.0 mi WSW 5.8 mph - N/A   Clear
10:15 PM 28.4 °F 21.2 °F 24.8 °F 86% 29.77 in 10.0 mi WSW 6.9 mph - N/A   Clear
10:35 PM 28.4 °F 23.3 °F 24.8 °F 86% 29.78 in 10.0 mi WSW 4.6 mph - N/A   Clear
10:55 PM 28.4 °F 22.2 °F 24.8 °F 86% 29.79 in 10.0 mi West 5.8 mph - N/A   Clear
11:15 PM 28.4 °F 21.2 °F 23.0 °F 80% 29.80 in 10.0 mi West 6.9 mph - N/A   Clear
11:34 PM 28.4 °F 20.4 °F 23.0 °F 80% 29.81 in 10.0 mi West 8.1 mph - N/A   Clear
11:55 PM 30.2 °F 21.3 °F 24.8 °F 80% 29.83 in 10.0 mi WNW 10.4 mph - N/A   Clear